TimeCDT,TemperatureF,Dew PointF,Humidity,Sea Level PressureIn,VisibilityMPH,Wind Direction,Wind SpeedMPH,Gust SpeedMPH,PrecipitationIn,Events,Conditions,WindDirDegrees,DateUTC
12:15 AM,59.0,41.9,53,30.00,10.0,SSW,3.5,-,N/A,,Clear,210,2013-03-17 05:15:00
12:35 AM,57.4,46.8,68,30.00,10.0,SSW,3.5,-,N/A,,Unknown,200,2013-03-17 05:35:00
12:55 AM,54.3,51.6,91,29.99,10.0,SSW,3.5,-,N/A,,Unknown,200,2013-03-17 05:55:00
1:15 AM,54.0,51.8,92,29.98,10.0,Calm,Calm,-,N/A,,Unknown,0,2013-03-17 06:15:00
1:35 AM,55.8,53.6,92,29.98,10.0,South,4.6,-,N/A,,Unknown,180,2013-03-17 06:35:00
1:55 AM,54.5,52.3,92,29.98,10.0,SSW,3.5,-,N/A,,Unknown,200,2013-03-17 06:55:00
2:15 AM,56.3,54.9,95,29.98,10.0,Calm,Calm,-,N/A,,Unknown,0,2013-03-17 07:15:00
2:35 AM,55.8,53.8,93,29.98,10.0,Calm,Calm,-,N/A,,Unknown,0,2013-03-17 07:35:00
2:55 AM,50.4,48.9,95,29.98,10.0,Calm,Calm,-,N/A,,Unknown,0,2013-03-17 07:55:00
3:15 AM,50.0,49.1,97,29.97,10.0,Calm,Calm,-,N/A,,Unknown,0,2013-03-17 08:15:00
3:35 AM,49.1,47.8,95,29.97,7.0,Calm,Calm,-,N/A,,Unknown,0,2013-03-17 08:35:00
3:55 AM,49.3,48.4,97,29.97,4.0,Calm,Calm,-,N/A,,Clear,0,2013-03-17 08:55:00
4:15 AM,48.6,47.5,96,29.96,5.0,Calm,Calm,-,N/A,,Clear,0,2013-03-17 09:15:00
4:35 AM,48.2,47.3,97,29.96,1.8,Calm,Calm,-,N/A,,Scattered Clouds,0,2013-03-17 09:35:00
4:55 AM,48.0,47.1,97,29.96,1.0,Calm,Calm,-,N/A,,Overcast,0,2013-03-17 09:55:00
5:15 AM,48.0,47.1,97,29.96,1.2,Calm,Calm,-,N/A,,Overcast,0,2013-03-17 10:15:00
5:35 AM,48.2,47.3,97,29.96,0.5,Calm,Calm,-,N/A,Fog,Fog,0,2013-03-17 10:35:00
5:55 AM,48.2,47.3,97,29.96,2.5,Calm,Calm,-,N/A,,Overcast,0,2013-03-17 10:55:00
6:15 AM,48.6,47.7,97,29.97,3.0,Calm,Calm,-,N/A,,Overcast,0,2013-03-17 11:15:00
6:35 AM,49.1,48.2,97,29.97,5.0,Calm,Calm,-,N/A,,Overcast,0,2013-03-17 11:35:00
6:55 AM,49.3,48.4,97,29.97,5.0,Calm,Calm,-,N/A,,Mostly Cloudy,0,2013-03-17 11:55:00
7:15 AM,49.5,48.6,97,29.98,7.0,Calm,Calm,-,N/A,,Overcast,0,2013-03-17 12:15:00
7:35 AM,50.0,49.1,97,29.98,5.0,Calm,Calm,-,N/A,,Overcast,0,2013-03-17 12:35:00
7:55 AM,50.4,49.5,97,29.98,7.0,Calm,Calm,-,N/A,,Mostly Cloudy,0,2013-03-17 12:55:00
8:15 AM,52.0,51.1,97,29.99,7.0,Calm,Calm,-,N/A,,Scattered Clouds,0,2013-03-17 13:15:00
8:35 AM,53.1,52.3,97,29.99,7.0,Calm,Calm,-,N/A,,Scattered Clouds,0,2013-03-17 13:35:00
8:55 AM,54.7,54.0,97,29.99,10.0,Calm,Calm,-,N/A,,Clear,0,2013-03-17 13:55:00
9:15 AM,56.3,55.4,97,30.00,10.0,Calm,Calm,-,N/A,,Mostly Cloudy,0,2013-03-17 14:15:00
9:35 AM,58.6,57.2,95,30.00,10.0,Calm,Calm,-,N/A,,Scattered Clouds,0,2013-03-17 14:35:00
9:55 AM,60.8,55.6,83,30.00,10.0,Calm,Calm,-,N/A,,Clear,0,2013-03-17 14:55:00
10:15 AM,61.5,58.3,89,30.00,10.0,ESE,3.5,-,N/A,,Clear,120,2013-03-17 15:15:00
10:35 AM,63.0,55.8,77,30.00,10.0,Calm,Calm,-,N/A,,Clear,0,2013-03-17 15:35:00
10:55 AM,64.0,49.6,59,29.99,10.0,SSE,3.5,-,N/A,,Clear,160,2013-03-17 15:55:00
11:15 AM,66.2,47.7,51,29.99,10.0,SSE,3.5,-,N/A,,Scattered Clouds,160,2013-03-17 16:15:00
11:35 AM,68.4,46.9,46,29.99,10.0,South,3.5,-,N/A,,Scattered Clouds,190,2013-03-17 16:35:00
11:55 AM,70.0,47.1,44,29.98,10.0,SSW,9.2,-,N/A,,Clear,200,2013-03-17 16:55:00
12:15 PM,71.2,47.1,42,29.98,10.0,South,9.2,-,N/A,,Clear,180,2013-03-17 17:15:00
12:35 PM,71.8,46.8,41,29.97,10.0,South,6.9,-,N/A,,Clear,180,2013-03-17 17:35:00
12:55 PM,73.9,45.9,37,29.96,10.0,South,10.4,-,N/A,,Unknown,190,2013-03-17 17:55:00
1:15 PM,72.7,44.8,37,29.95,10.0,SSW,10.4,16.1,N/A,,Unknown,200,2013-03-17 18:15:00
1:35 PM,73.8,45.0,36,29.95,10.0,SSW,12.7,18.4,N/A,,Unknown,210,2013-03-17 18:35:00
1:55 PM,77.2,39.2,26,29.93,10.0,SW,16.1,21.9,N/A,,Unknown,220,2013-03-17 18:55:00
2:15 PM,76.6,39.2,26,29.92,10.0,SSW,13.8,18.4,N/A,,Unknown,200,2013-03-17 19:15:00
2:35 PM,76.3,39.0,26,29.92,10.0,South,15.0,18.4,N/A,,Unknown,190,2013-03-17 19:35:00
2:55 PM,76.5,37.8,25,29.91,10.0,SW,18.4,23.0,N/A,,Unknown,220,2013-03-17 19:55:00
3:15 PM,75.0,36.9,25,29.90,10.0,SSW,15.0,23.0,N/A,,Scattered Clouds,200,2013-03-17 20:15:00
3:35 PM,74.8,35.8,24,29.89,10.0,SSW,12.7,19.6,N/A,,Clear,210,2013-03-17 20:35:00
4:15 PM,76.6,34.9,22,29.89,10.0,SSW,10.4,-,N/A,,Scattered Clouds,210,2013-03-17 21:15:00
4:35 PM,76.1,35.2,23,29.88,10.0,SSW,9.2,16.1,N/A,,Scattered Clouds,210,2013-03-17 21:35:00
4:55 PM,76.6,34.2,21,29.87,10.0,SW,13.8,17.3,N/A,,Scattered Clouds,220,2013-03-17 21:55:00
5:15 PM,75.2,35.4,24,29.87,10.0,SSW,11.5,-,N/A,,Clear,210,2013-03-17 22:15:00
5:35 PM,76.1,33.8,21,29.87,10.0,SW,10.4,-,N/A,,Clear,220,2013-03-17 22:35:00
5:55 PM,75.4,34.7,23,29.86,10.0,SW,12.7,-,N/A,,Clear,220,2013-03-17 22:55:00
6:15 PM,74.7,35.1,24,29.86,10.0,SSW,10.4,16.1,N/A,,Clear,210,2013-03-17 23:15:00
6:35 PM,73.6,35.6,25,29.87,10.0,South,10.4,-,N/A,,Clear,190,2013-03-17 23:35:00
6:55 PM,72.7,36.5,27,29.87,10.0,SSW,9.2,-,N/A,,Clear,200,2013-03-17 23:55:00
7:15 PM,71.2,38.8,31,29.86,10.0,South,6.9,-,N/A,,Clear,190,2013-03-18 00:15:00
7:35 PM,70.9,38.7,31,29.86,10.0,South,9.2,-,N/A,,Clear,170,2013-03-18 00:35:00
7:55 PM,70.2,39.2,32,29.85,10.0,SSE,9.2,-,N/A,,Clear,160,2013-03-18 00:55:00
8:15 PM,69.1,40.5,35,29.85,10.0,South,8.1,-,N/A,,Clear,170,2013-03-18 01:15:00
8:35 PM,68.9,40.5,35,29.86,10.0,South,9.2,17.3,N/A,,Clear,170,2013-03-18 01:35:00
8:55 PM,68.2,42.4,39,29.87,10.0,South,10.4,16.1,N/A,,Clear,170,2013-03-18 01:55:00
9:15 PM,68.0,43.9,42,29.87,10.0,SSE,11.5,17.3,N/A,,Scattered Clouds,160,2013-03-18 02:15:00
9:35 PM,67.1,44.6,44,29.88,10.0,SSE,10.4,18.4,N/A,,Scattered Clouds,160,2013-03-18 02:35:00
9:55 PM,67.1,44.8,45,29.89,10.0,SSE,10.4,-,N/A,,Mostly Cloudy,160,2013-03-18 02:55:00
10:15 PM,66.4,45.5,47,29.89,10.0,SSE,9.2,-,N/A,,Mostly Cloudy,160,2013-03-18 03:15:00
10:35 PM,66.2,45.9,48,29.89,10.0,SSE,8.1,-,N/A,,Mostly Cloudy,160,2013-03-18 03:35:00
10:55 PM,65.8,46.4,49,29.89,10.0,SSE,5.8,-,N/A,,Overcast,160,2013-03-18 03:55:00
11:15 PM,65.7,46.8,50,29.88,10.0,SSE,6.9,-,N/A,,Scattered Clouds,160,2013-03-18 04:15:00
11:35 PM,65.5,47.3,52,29.88,10.0,SSE,6.9,-,N/A,,Clear,160,2013-03-18 04:35:00
11:55 PM,65.5,47.3,52,29.88,10.0,SSE,6.9,-,N/A,,Unknown,160,2013-03-18 04:55:00